• In Hungary
  • List of Countries
  • For 7 days
  • Water Temperature
  • Satellite Maps
  • Weather Map
  • News
  • Weather Widgets
  • user-avatar
    Login

    Hourly Weather Novikovskiy

    Today, 21 September, Friday

    Time Temperature Precipitation Wind Pressure Humidity
    00:00 +16°C° 0 mm 1 mps 746 mmHg 90%
    01:00 +16°C° 0 mm 1 mps 746 mmHg 91%
    02:00 +16°C° 0 mm 1 mps 746 mmHg 91%
    03:00 +15°C° 0 mm 1 mps 746 mmHg 91%
    04:00 +15°C° 0 mm 1 mps 746 mmHg 91%
    05:00 +15°C° 0 mm 1 mps 746 mmHg 91%
    06:00 +16°C° 0 mm 1 mps 747 mmHg 86%
    07:00 +19°C° 0 mm 1 mps 747 mmHg 81%
    08:00 +20°C° 0 mm 1 mps 747 mmHg 75%
    09:00 +22°C° 0 mm 1 mps 747 mmHg 69%
    10:00 +23°C° 0 mm 1 mps 747 mmHg 63%
    11:00 +25°C° 0 mm 1 mps 747 mmHg 56%
    12:00 +26°C° 0 mm 1 mps 747 mmHg 55%
    13:00 +26°C° 0 mm 1 mps 747 mmHg 53%
    14:00 +27°C° 0 mm 1 mps 747 mmHg 52%
    15:00 +26°C° 0 mm 1 mps 747 mmHg 56%
    16:00 +25°C° 0 mm 1 mps 747 mmHg 61%
    17:00 +24°C° 0 mm 1 mps 746 mmHg 66%
    18:00 +23°C° 0 mm 1 mps 746 mmHg 70%
    19:00 +21°C° 0 mm 1 mps 746 mmHg 73%
    20:00 +19°C° 0 mm 2 mps 746 mmHg 77%
    21:00 +19°C° 0 mm 2 mps 746 mmHg 79%
    22:00 +18°C° 0 mm 2 mps 746 mmHg 80%
    23:00 +18°C° 0 mm 2 mps 747 mmHg 82%

    Tomorrow, 22 September, Saturday

    Time Temperature Precipitation Wind Pressure Humidity
    00:00 +18°C° 0 mm 2 mps 746 mmHg 83%
    01:00 +17°C° 0 mm 2 mps 746 mmHg 84%
    02:00 +17°C° 0 mm 2 mps 746 mmHg 84%
    03:00 +17°C° 0 mm 2 mps 746 mmHg 83%
    04:00 +17°C° 0 mm 2 mps 746 mmHg 82%
    05:00 +16°C° 0 mm 3 mps 746 mmHg 82%
    06:00 +18°C° 0 mm 3 mps 746 mmHg 76%
    07:00 +19°C° 0 mm 4 mps 746 mmHg 71%
    08:00 +20°C° 0 mm 4 mps 745 mmHg 66%
    09:00 +22°C° 0 mm 4 mps 745 mmHg 61%
    10:00 +23°C° 0 mm 5 mps 745 mmHg 56%
    11:00 +26°C° 0 mm 5 mps 745 mmHg 51%
    12:00 +26°C° 0 mm 5 mps 744 mmHg 50%
    13:00 +27°C° 0 mm 6 mps 744 mmHg 48%
    14:00 +27°C° 0 mm 6 mps 743 mmHg 46%
    15:00 +26°C° 0 mm 5 mps 743 mmHg 51%
    16:00 +25°C° 0 mm 4 mps 742 mmHg 56%
    17:00 +24°C° 0 mm 3 mps 742 mmHg 61%
    18:00 +22°C° 0 mm 4 mps 741 mmHg 59%
    19:00 +22°C° 0 mm 4 mps 741 mmHg 58%
    20:00 +21°C° 0 mm 5 mps 741 mmHg 57%
    21:00 +20°C° 0 mm 4 mps 740 mmHg 58%
    22:00 +20°C° 0 mm 4 mps 740 mmHg 59%
    23:00 +19°C° 0 mm 4 mps 740 mmHg 59%

    Day after tomorrow, 23 September, Sunday

    Time Temperature Precipitation Wind Pressure Humidity
    00:00 +18°C° 0 mm 4 mps 740 mmHg 63%
    01:00 +17°C° 0 mm 3 mps 739 mmHg 66%
    02:00 +16°C° 0 mm 3 mps 739 mmHg 70%
    03:00 +14°C° 0.1 mm 3 mps 739 mmHg 73%
    04:00 +14°C° 0.1 mm 4 mps 739 mmHg 76%
    05:00 +13°C° 0.1 mm 4 mps 738 mmHg 79%
    06:00 +12°C° 0.7 mm 4 mps 738 mmHg 82%
    07:00 +10°C° 0.7 mm 5 mps 738 mmHg 86%
    08:00 +9°C° 0.7 mm 5 mps 738 mmHg 89%
    09:00 +8°C° 1.5 mm 6 mps 738 mmHg 89%
    10:00 +8°C° 1.5 mm 6 mps 739 mmHg 89%
    11:00 +7°C° 1.5 mm 6 mps 739 mmHg 89%
    12:00 +8°C° 0.4 mm 5 mps 739 mmHg 87%
    13:00 +9°C° 0.4 mm 5 mps 740 mmHg 84%
    14:00 +10°C° 0.4 mm 5 mps 740 mmHg 82%
    15:00 +11°C° 0.1 mm 4 mps 740 mmHg 82%
    16:00 +11°C° 0.1 mm 4 mps 740 mmHg 82%
    17:00 +11°C° 0.1 mm 3 mps 740 mmHg 83%
    18:00 +10°C° 0 mm 3 mps 740 mmHg 85%
    19:00 +10°C° 0 mm 3 mps 741 mmHg 87%
    20:00 +9°C° 0 mm 3 mps 741 mmHg 90%
    21:00 +9°C° 0 mm 3 mps 741 mmHg 90%
    22:00 +7°C° 0 mm 4 mps 741 mmHg 90%
    23:00 +7°C° 0 mm 4 mps 741 mmHg 91%

    24 September, Monday

    Time Temperature Precipitation Wind Pressure Humidity
    00:00 +8°C° 0 mm 3 mps 741 mmHg 92%
    01:00 +7°C° 0 mm 3 mps 741 mmHg 93%
    02:00 +7°C° 0 mm 3 mps 742 mmHg 94%
    03:00 +7°C° 0 mm 3 mps 742 mmHg 95%
    04:00 +5°C° 0 mm 3 mps 742 mmHg 95%
    05:00 +5°C° 0 mm 3 mps 742 mmHg 96%
    06:00 +7°C° 0 mm 3 mps 742 mmHg 92%
    07:00 +8°C° 0 mm 3 mps 742 mmHg 88%
    08:00 +9°C° 0 mm 3 mps 742 mmHg 84%
    09:00 +11°C° 0 mm 3 mps 741 mmHg 77%
    10:00 +12°C° 0 mm 4 mps 741 mmHg 70%
    11:00 +14°C° 0 mm 4 mps 741 mmHg 63%
    12:00 +14°C° 0 mm 4 mps 741 mmHg 62%
    13:00 +14°C° 0 mm 4 mps 740 mmHg 60%
    14:00 +14°C° 0 mm 5 mps 740 mmHg 59%
    15:00 +13°C° 0.1 mm 5 mps 739 mmHg 63%
    16:00 +12°C° 0.1 mm 5 mps 738 mmHg 67%
    17:00 +12°C° 0.1 mm 5 mps 737 mmHg 70%
    18:00 +10°C° 0.8 mm 6 mps 736 mmHg 73%
    19:00 +10°C° 0.8 mm 7 mps 735 mmHg 76%
    20:00 +10°C° 0.8 mm 8 mps 734 mmHg 78%
    21:00 +10°C° 1.9 mm 9 mps 733 mmHg 80%
    22:00 +10°C° 1.9 mm 9 mps 732 mmHg 82%
    23:00 +9°C° 1.9 mm 10 mps 731 mmHg 84%

    25 September, Tuesday

    Time Temperature Precipitation Wind Pressure Humidity
    00:00 +11°C° 0.9 mm 10 mps 730 mmHg 84%
    01:00 +11°C° 0.9 mm 9 mps 730 mmHg 85%
    02:00 +11°C° 0.9 mm 8 mps 729 mmHg 86%
    03:00 +10°C° 0.1 mm 8 mps 729 mmHg 85%
    04:00 +9°C° 0.1 mm 8 mps 728 mmHg 85%
    05:00 +8°C° 0.1 mm 7 mps 728 mmHg 84%
    06:00 +8°C° 0.1 mm 7 mps 728 mmHg 84%
    07:00 +8°C° 0.1 mm 7 mps 727 mmHg 83%
    08:00 +8°C° 0.1 mm 7 mps 727 mmHg 82%
    09:00 +7°C° 0.3 mm 8 mps 727 mmHg 83%
    10:00 +7°C° 0.3 mm 8 mps 727 mmHg 83%
    11:00 +7°C° 0.3 mm 8 mps 726 mmHg 83%
    12:00 +7°C° 0.2 mm 8 mps 726 mmHg 83%
    13:00 +7°C° 0.2 mm 8 mps 726 mmHg 82%
    14:00 +8°C° 0.2 mm 7 mps 726 mmHg 82%
    15:00 +8°C° 0.2 mm 7 mps 726 mmHg 84%
    16:00 +7°C° 0.2 mm 6 mps 726 mmHg 86%
    17:00 +7°C° 0.2 mm 6 mps 727 mmHg 88%
    18:00 +7°C° 0.7 mm 6 mps 727 mmHg 88%
    19:00 +6°C° 0.7 mm 7 mps 728 mmHg 89%
    20:00 +6°C° 0.7 mm 7 mps 728 mmHg 89%
    21:00 +5°C° 0.6 mm 8 mps 729 mmHg 88%
    22:00 +5°C° 0.6 mm 8 mps 730 mmHg 87%
    23:00 +5°C° 0.6 mm 8 mps 730 mmHg 86%

    26 September, Wednesday

    Time Temperature Precipitation Wind Pressure Humidity
    00:00 +4°C° 0.3 mm 8 mps 731 mmHg 86%
    01:00 +4°C° 0.3 mm 8 mps 732 mmHg 85%
    02:00 +4°C° 0.3 mm 8 mps 733 mmHg 84%
    03:00 +2°C° 0.1 mm 8 mps 734 mmHg 84%
    04:00 +2°C° 0.1 mm 8 mps 734 mmHg 84%
    05:00 +3°C° 0.1 mm 7 mps 735 mmHg 83%
    06:00 +3°C° 0 mm 7 mps 736 mmHg 82%
    07:00 +3°C° 0 mm 7 mps 737 mmHg 80%
    08:00 +3°C° 0 mm 7 mps 737 mmHg 78%
    09:00 +3°C° 0 mm 7 mps 738 mmHg 75%
    10:00 +4°C° 0 mm 7 mps 739 mmHg 72%
    11:00 +5°C° 0 mm 6 mps 739 mmHg 69%
    12:00 +5°C° 0.1 mm 6 mps 740 mmHg 69%
    13:00 +5°C° 0.1 mm 6 mps 741 mmHg 69%
    14:00 +5°C° 0.1 mm 6 mps 741 mmHg 69%
    15:00 +6°C° 0.1 mm 5 mps 742 mmHg 70%
    16:00 +6°C° 0.1 mm 5 mps 742 mmHg 72%
    17:00 +5°C° 0.1 mm 4 mps 743 mmHg 74%
    18:00 +5°C° 0 mm 4 mps 744 mmHg 75%
    19:00 +5°C° 0 mm 4 mps 744 mmHg 77%
    20:00 +4°C° 0 mm 3 mps 745 mmHg 78%
    21:00 +4°C° 0 mm 3 mps 745 mmHg 79%
    22:00 +3°C° 0 mm 3 mps 746 mmHg 81%
    23:00 +3°C° 0 mm 3 mps 746 mmHg 82%
    Show more